QPF
0.00 0.00 0.00 0.00 0.00 0.00 0.00 0.00 0.01 0.01 0.01 0.01 0.00 0.00 0.00 0.00 0.00 0.00 0.00 0.00 0.00 0.00 0.00 0.00 0.00 0.00 0.00 0.00 0.00 0.00 0.00 0.00 0.00 0.00 0.00 0.00 0.00 0.00 0.00 0.00 0.00 0.00 0.00
0.00 0.00 0.00 0.00 0.00 0.00 0.00 0.00 0.00 0.00 0.00 0.00 0.00 0.00 0.00 0.00 0.00 0.00 0.00 0.00 0.00 0.00 0.00 0.00 0.00 0.00 0.00 0.00 0.00 0.00 0.00 0.00 0.00 0.00 0.00 0.00 0.00 0.00 0.00 0.00 0.00 0.00 0.00
0.00 0.00 0.00 0.00 0.00 0.00 0.00 0.00 0.00 0.00 0.00 0.00 0.00 0.00 0.00 0.00 0.00 0.00 0.00 0.00 0.00 0.00 0.00 0.00 0.00 0.00 0.00 0.00 0.00 0.00 0.00 0.00 0.00 0.00 0.00 0.00 0.00 0.00 0.00 0.00 0.00 0.00 0.00
0.00 0.00 0.00 0.00 0.00 0.00 0.00 0.00 0.00 0.00 0.00 0.00 0.00 0.00 0.00 0.00 0.00 0.00 0.00 0.00 0.00 0.00 0.00 0.00 0.00 0.00 0.00 0.00 0.00 0.00 0.00 0.00 0.00 0.00 0.00 0.00 0.00 0.00 0.00 0.00 0.00 0.00 0.00
0.00 0.00 0.00 0.00 0.00 0.00 0.00 0.00 0.00 0.00 0.00 0.00 0.00 0.00 0.00 0.00 0.00 0.00 0.00 0.00 0.00 0.00 0.00 0.00 0.00 0.00 0.00 0.00 0.00 0.00 0.00 0.00 0.00 0.00 0.00 0.00 0.00 0.00 0.00 0.00 0.00 0.00 0.00
0.00 0.00 0.00 0.00 0.00 0.00 0.00 0.00 0.00 0.00 0.00 0.00 0.00 0.00 0.00 0.00 0.00 0.00 0.00 0.00 0.00 0.00 0.00 0.00 0.00 0.00 0.00 0.00 0.00 0.00 0.00 0.00 0.00 0.00 0.00 0.00 0.00 0.00 0.00 0.00 0.00 0.00 0.00
0.00 0.00 0.00 0.00 0.00 0.00 0.00 0.00 0.00 0.00 0.00 0.00 0.00 0.00 0.00 0.00 0.00 0.00 0.00 0.00 0.00 0.00 0.00 0.00 0.00 0.00 0.00 0.00 0.00 0.00 0.00 0.00 0.00 0.00 0.00 0.00 0.00 0.00 0.00 0.00 0.00 0.00 0.00
0.00 0.00 0.00 0.00 0.00 0.00 0.00 0.00 0.00 0.00 0.00 0.00 0.00 0.00 0.00 0.00 0.00 0.00 0.00 0.00 0.00 0.00 0.00 0.00 0.00 0.00 0.00 0.00 0.00 0.00 0.00 0.00 0.00 0.00 0.00 0.00 0.00 0.00 0.00 0.00 0.00 0.00 0.00
0.00 0.00 0.00 0.00 0.00 0.00 0.00 0.00 0.00 0.00 0.00 0.00 0.00 0.00 0.00 0.00 0.00 0.00 0.00 0.00 0.00 0.00 0.00 0.00 0.00 0.00 0.00 0.00 0.00 0.00 0.00 0.00 0.00 0.00 0.00 0.00 0.00 0.00 0.00 0.00 0.00 0.01 0.00
0.00 0.00 0.00 0.00 0.00 0.00 0.00 0.00 0.00 0.00 0.00 0.00 0.00 0.00 0.00 0.00 0.00 0.00 0.00 0.00 0.00 0.00 0.00 0.00 0.00 0.00 0.00 0.00 0.00 0.00 0.00 0.00 0.00 0.00 0.00 0.00 0.00 0.00 0.00 0.00 0.00 0.00 0.01
0.00 0.00 0.00 0.00 0.00 0.00 0.00 0.00 0.00 0.00 0.00 0.00 0.00 0.00 0.00 0.00 0.00 0.00 0.00 0.00 0.00 0.00 0.00 0.00 0.00 0.00 0.00 0.00 0.00 0.00 0.00 0.00 0.00 0.00 0.00 0.00 0.00 0.00 0.00 0.00 0.00 0.00 0.00
0.00 0.00 0.00 0.00 0.00 0.00 0.00 0.00 0.00 0.00 0.00 0.00 0.00 0.00 0.00 0.00 0.00 0.00 0.00 0.00 0.00 0.00 0.00 0.00 0.00 0.00 0.00 0.00 0.00 0.00 0.00 0.00 0.00 0.00 0.00 0.00 0.00 0.00 0.00 0.00 0.00 0.00 0.00
0.00 0.00 0.00 0.00 0.00 0.00 0.00 0.00 0.00 0.00 0.00 0.00 0.00 0.00 0.00 0.00 0.00 0.00 0.00 0.00 0.00 0.00 0.00 0.00 0.00 0.00 0.00 0.00 0.00 0.00 0.00 0.00 0.00 0.00 0.00 0.00 0.00 0.00 0.00 0.00 0.00 0.00 0.00
0.00 0.00 0.00 0.00 0.00 0.00 0.00 0.00 0.00 0.00 0.00 0.00 0.00 0.00 0.00 0.00 0.00 0.00 0.00 0.00 0.00 0.00 0.00 0.00 0.00 0.00 0.00 0.00 0.00 0.00 0.00 0.00 0.00 0.01 0.01 0.00 0.00 0.00 0.00 0.00 0.00 0.00 0.00
0.00 0.00 0.00 0.00 0.00 0.00 0.00 0.00 0.00 0.00 0.00 0.00 0.00 0.00 0.00 0.00 0.00 0.00 0.00 0.00 0.00 0.00 0.00 0.00 0.00 0.00 0.00 0.00 0.00 0.00 0.00 0.00 0.00 0.00 0.01 0.02 0.00 0.00 0.00 0.01 0.00 0.00 0.00
0.00 0.00 0.00 0.00 0.00 0.00 0.00 0.00 0.00 0.00 0.00 0.00 0.00 0.00 0.00 0.00 0.00 0.00 0.00 0.00 0.00 0.00 0.00 0.00 0.00 0.00 0.00 0.00 0.00 0.00 0.00 0.00 0.00 0.00 0.01 0.05 0.02 0.00 0.00 0.00 0.01 0.02 0.02
0.00 0.00 0.00 0.00 0.00 0.00 0.00 0.00 0.00 0.00 0.00 0.00 0.00 0.00 0.00 0.00 0.00 0.00 0.00 0.00 0.00 0.00 0.00 0.00 0.00 0.00 0.00 0.00 0.00 0.00 0.00 0.00 0.00 0.00 0.01 0.03 0.05 0.02 0.02 0.02 0.01 0.02 0.01
0.00 0.00 0.00 0.00 0.00 0.00 0.00 0.00 0.00 0.00 0.00 0.00 0.00 0.00 0.00 0.00 0.00 0.00 0.00 0.00 0.00 0.00 0.00 0.00 0.00 0.00 0.00 0.00 0.00 0.00 0.00 0.00 0.00 0.00 0.00 0.01 0.01 0.01 0.01 0.01 0.01 0.00 0.00
0.00 0.00 0.00 0.00 0.00 0.00 0.00 0.00 0.00 0.00 0.00 0.00 0.00 0.00 0.00 0.00 0.00 0.00 0.00 0.00 0.00 0.00 0.00 0.00 0.00 0.00 0.00 0.00 0.00 0.00 0.00 0.00 0.00 0.00 0.00 0.00 0.00 0.00 0.00 0.00 0.00 0.00 0.00
0.00 0.00 0.00 0.00 0.00 0.00 0.00 0.00 0.00 0.00 0.00 0.00 0.00 0.00 0.00 0.00 0.00 0.00 0.00 0.00 0.00 0.00 0.00 0.00 0.00 0.00 0.00 0.00 0.00 0.00 0.00 0.00 0.00 0.00 0.00 0.00 0.00 0.00 0.00 0.00 0.00 0.00 0.00
0.00 0.00 0.00 0.00 0.00 0.00 0.00 0.00 0.00 0.00 0.00 0.00 0.00 0.00 0.00 0.00 0.00 0.00 0.00 0.00 0.00 0.00 0.00 0.00 0.00 0.00 0.00 0.00 0.00 0.00 0.00 0.00 0.00 0.00 0.00 0.00 0.00 0.00 0.00 0.00 0.00 0.00 0.00
0.00 0.00 0.00 0.00 0.00 0.00 0.00 0.00 0.00 0.00 0.00 0.00 0.00 0.00 0.00 0.00 0.00 0.00 0.00 0.00 0.00 0.00 0.00 0.00 0.00 0.00 0.00 0.00 0.00 0.00 0.00 0.00 0.00 0.00 0.00 0.00 0.00 0.00 0.00 0.00 0.00 0.00 0.00
0.00 0.00 0.00 0.00 0.00 0.00 0.00 0.00 0.00 0.00 0.00 0.00 0.00 0.00 0.00 0.00 0.00 0.00 0.00 0.00 0.00 0.00 0.00 0.00 0.00 0.00 0.00 0.00 0.00 0.00 0.00 0.00 0.00 0.00 0.00 0.00 0.00 0.00 0.00 0.00 0.00 0.00 0.00
0.00 0.00 0.00 0.00 0.00 0.00 0.00 0.00 0.00 0.00 0.00 0.00 0.00 0.00 0.00 0.00 0.00 0.00 0.00 0.00 0.00 0.00 0.00 0.00 0.00 0.00 0.00 0.00 0.00 0.00 0.00 0.00 0.00 0.00 0.00 0.00 0.00 0.00 0.00 0.00 0.00 0.00 0.00
0.00 0.00 0.00 0.00 0.00 0.00 0.00 0.00 0.00 0.00 0.00 0.00 0.00 0.00 0.00 0.00 0.00 0.00 0.00 0.00 0.00 0.00 0.00 0.00 0.00 0.00 0.00 0.00 0.00 0.00 0.00 0.00 0.00 0.00 0.00 0.00 0.00 0.00 0.00 0.00 0.00 0.00 0.00
0.00 0.00 0.00 0.00 0.00 0.00 0.00 0.00 0.00 0.00 0.00 0.00 0.00 0.00 0.00 0.00 0.00 0.00 0.00 0.00 0.00 0.00 0.00 0.00 0.00 0.00 0.00 0.00 0.00 0.00 0.00 0.00 0.00 0.00 0.00 0.00 0.00 0.00 0.00 0.00 0.00 0.00 0.00
MSLP
1009.48 1010.00 1010.35 1010.57 1011.02 1011.84 1012.38 1012.77 1013.29 1013.47 1013.50 1013.34 1013.19 1012.90 1012.95 1012.84 1012.70 1012.52 1012.26 1012.07 1011.67 1011.41 1011.27 1010.95 1010.50 1010.26 1009.78 1009.34 1008.95 1008.50 1008.15 1007.89 1007.10 1006.53 1006.51 1006.54 1006.59 1006.30 1005.69 1005.40 1005.03 1004.70 1004.26
1010.43 1011.13 1011.61 1011.81 1012.05 1012.75 1012.52 1012.57 1013.79 1013.74 1013.97 1013.89 1013.52 1013.26 1013.02 1012.79 1012.71 1012.58 1012.35 1012.12 1011.78 1011.40 1011.02 1010.62 1010.14 1009.76 1009.45 1009.23 1009.05 1008.90 1008.51 1008.19 1007.65 1006.47 1006.48 1006.19 1005.89 1005.27 1004.95 1004.96 1004.68 1004.12 1003.78
1011.46 1012.37 1012.80 1013.35 1013.28 1012.65 1012.82 1011.88 1013.15 1013.92 1014.11 1014.12 1013.68 1013.39 1013.08 1012.97 1013.00 1012.87 1012.60 1012.18 1011.75 1011.27 1010.80 1010.31 1009.90 1009.55 1009.12 1009.06 1008.96 1008.74 1008.45 1007.65 1006.92 1006.36 1005.95 1006.01 1005.36 1004.84 1004.33 1004.10 1003.87 1003.33 1003.04
1012.05 1012.58 1012.92 1013.14 1013.30 1012.09 1012.45 1013.55 1014.17 1014.46 1014.50 1014.38 1014.01 1013.64 1013.39 1013.21 1013.01 1012.73 1012.36 1012.12 1011.63 1010.99 1010.58 1010.18 1009.83 1009.43 1008.98 1008.67 1008.59 1008.09 1007.48 1007.12 1006.89 1006.45 1005.84 1005.31 1004.73 1003.89 1003.84 1003.46 1002.76 1002.37 1001.89
1012.68 1012.73 1013.09 1013.43 1013.02 1013.55 1014.08 1014.47 1014.67 1014.67 1014.65 1014.44 1013.98 1013.60 1013.38 1013.15 1012.73 1013.42 1013.24 1012.39 1011.48 1010.74 1010.16 1009.72 1009.08 1008.87 1008.96 1009.00 1008.68 1008.01 1007.52 1006.98 1006.30 1005.49 1004.87 1004.19 1003.37 1002.85 1002.36 1002.02 1001.73 1001.76 1001.41
1013.39 1013.27 1013.43 1014.04 1013.85 1014.36 1014.60 1014.69 1014.63 1014.72 1014.67 1014.28 1013.85 1013.57 1013.36 1013.10 1013.63 1013.93 1013.77 1012.69 1011.66 1010.69 1009.89 1009.23 1008.84 1008.36 1007.83 1007.84 1007.72 1007.73 1007.47 1007.03 1006.11 1005.15 1004.18 1003.07 1002.06 1001.77 1001.77 1001.49 1001.41 1001.58 1001.51
1013.66 1014.14 1014.45 1014.41 1014.61 1014.82 1014.90 1014.80 1014.90 1014.73 1014.41 1014.14 1013.83 1013.94 1013.73 1013.87 1013.94 1013.88 1013.73 1012.73 1011.60 1010.53 1009.78 1009.14 1008.37 1007.75 1007.70 1007.19 1006.88 1006.49 1006.33 1006.00 1005.62 1004.83 1003.88 1003.03 1002.19 1001.55 1001.45 1001.47 1001.35 1001.36 1001.30
1014.74 1015.01 1015.12 1015.15 1015.24 1015.27 1015.17 1015.18 1015.12 1014.78 1014.53 1014.35 1014.17 1014.11 1013.83 1013.73 1014.02 1013.98 1013.78 1012.45 1011.34 1010.29 1009.59 1009.05 1008.48 1007.84 1007.43 1007.60 1007.12 1006.56 1005.82 1005.00 1004.27 1003.71 1003.03 1002.07 1001.50 1001.11 1001.02 1000.92 1000.90 1000.91 1000.95
1015.53 1015.67 1015.84 1015.83 1015.82 1015.80 1015.84 1015.91 1015.66 1015.40 1014.99 1014.76 1014.40 1014.11 1013.94 1013.88 1014.16 1014.12 1013.74 1012.61 1011.39 1010.43 1009.64 1009.01 1008.59 1008.13 1007.77 1007.54 1007.07 1005.95 1004.74 1003.60 1003.16 1002.63 1002.05 1001.38 1000.78 1000.34 1000.30 1000.45 1000.07 1000.32 1000.11
1016.37 1016.37 1016.39 1016.32 1016.31 1016.36 1016.49 1016.24 1016.13 1015.80 1015.18 1015.18 1014.64 1014.15 1014.23 1014.15 1014.23 1014.28 1013.95 1012.95 1011.80 1010.73 1009.72 1008.70 1008.10 1008.05 1007.80 1007.49 1006.76 1005.53 1004.29 1003.23 1002.37 1001.36 1000.60 999.96 999.40 998.94 998.91 999.28 999.33 999.42 999.61
1017.01 1016.95 1016.96 1016.97 1016.72 1016.96 1016.96 1016.81 1016.68 1016.46 1016.18 1015.56 1014.92 1014.58 1014.52 1014.64 1014.43 1014.16 1013.70 1013.09 1012.05 1010.94 1009.70 1008.57 1008.17 1008.08 1007.74 1006.97 1006.12 1005.20 1004.50 1003.15 1001.54 1000.59 999.67 998.89 998.56 998.32 997.82 997.81 998.32 998.56 998.78
1017.53 1017.58 1017.71 1017.52 1017.26 1017.35 1017.32 1017.15 1017.06 1017.02 1016.65 1016.29 1015.89 1015.50 1015.12 1014.59 1014.54 1014.34 1013.72 1012.98 1011.99 1010.49 1009.73 1009.24 1008.50 1008.17 1007.32 1006.13 1005.20 1004.58 1003.48 1002.19 1001.07 999.96 999.28 998.46 998.11 997.80 997.48 997.47 997.77 998.12 998.49
1018.34 1018.20 1017.95 1017.93 1017.84 1017.71 1017.63 1017.64 1017.66 1017.88 1017.80 1017.48 1017.15 1016.56 1015.67 1015.04 1014.81 1014.41 1013.49 1012.72 1011.81 1010.71 1010.42 1009.64 1008.83 1008.23 1007.26 1005.76 1004.99 1004.19 1003.11 1002.18 1001.31 999.85 998.89 998.43 998.08 998.03 997.81 997.63 997.88 998.21 998.67
1019.02 1018.76 1018.56 1018.32 1018.24 1018.50 1018.51 1018.64 1018.54 1018.68 1018.66 1018.50 1018.01 1017.46 1016.72 1016.01 1015.55 1014.95 1013.47 1012.66 1011.71 1010.91 1010.22 1009.43 1009.23 1008.59 1007.68 1006.44 1005.10 1004.13 1003.58 1002.95 1001.98 1000.66 999.08 998.43 998.09 997.90 997.85 997.97 998.10 998.45 998.67
1019.58 1019.46 1019.09 1019.20 1018.99 1019.03 1019.26 1019.60 1019.55 1019.94 1019.92 1019.49 1019.16 1018.44 1017.64 1017.02 1016.82 1016.14 1015.01 1013.76 1012.99 1011.85 1010.85 1009.95 1009.29 1008.59 1007.96 1007.12 1006.36 1005.62 1004.55 1003.41 1002.17 1001.11 999.82 998.40 998.39 998.13 998.24 998.45 998.60 998.72 998.63
1020.12 1020.05 1020.09 1020.02 1019.79 1019.20 1019.37 1019.70 1020.31 1020.38 1020.38 1020.33 1019.97 1019.34 1018.58 1018.38 1017.51 1016.35 1015.34 1014.32 1013.23 1012.21 1011.16 1010.70 1010.72 1010.48 1009.94 1009.10 1008.07 1006.76 1005.51 1004.29 1003.17 1001.57 999.69 998.29 998.41 998.50 998.47 998.55 998.42 998.34 998.46
1020.80 1020.81 1020.67 1020.23 1019.96 1019.64 1019.78 1020.15 1020.52 1020.60 1020.67 1020.62 1020.18 1019.64 1019.31 1018.82 1017.76 1016.72 1015.73 1014.72 1013.59 1012.06 1011.63 1011.77 1012.08 1011.78 1011.22 1010.45 1009.57 1008.40 1007.03 1005.59 1004.08 1002.52 1000.85 999.50 999.07 998.96 998.62 998.97 998.86 998.92 999.30
1021.00 1021.53 1021.21 1020.96 1020.40 1020.19 1020.45 1020.88 1021.14 1021.24 1021.08 1020.68 1020.39 1020.19 1019.60 1018.90 1018.26 1017.32 1016.12 1014.59 1013.56 1012.87 1012.48 1012.45 1012.70 1012.69 1012.25 1011.51 1010.64 1009.41 1007.95 1006.46 1005.14 1003.66 1002.25 1000.93 1000.18 999.79 999.57 999.77 999.70 999.63 999.64
1020.70 1021.04 1021.35 1021.33 1021.18 1020.79 1021.12 1021.43 1021.69 1021.98 1021.79 1021.52 1021.06 1020.52 1020.03 1019.47 1018.92 1018.19 1017.00 1015.94 1015.13 1014.40 1014.06 1013.26 1012.86 1012.93 1012.86 1012.30 1011.64 1010.52 1009.36 1008.13 1006.93 1005.18 1003.74 1002.30 1001.51 1000.93 1000.67 1000.68 1000.59 1000.53 1000.40
1021.53 1022.10 1021.44 1020.77 1020.93 1021.38 1021.32 1021.65 1022.00 1022.01 1021.91 1021.62 1021.13 1021.12 1020.52 1019.44 1019.22 1018.85 1018.19 1017.82 1017.38 1016.39 1015.57 1014.73 1013.86 1013.21 1013.16 1012.68 1012.06 1011.39 1010.04 1008.96 1007.64 1006.56 1005.32 1003.75 1002.64 1002.08 1001.87 1001.59 1001.51 1001.55 1001.62
1021.44 1021.78 1021.93 1021.38 1021.48 1021.43 1021.52 1021.86 1021.95 1021.92 1021.67 1021.39 1020.97 1021.68 1020.96 1019.88 1019.66 1020.15 1019.96 1019.54 1019.17 1018.40 1017.36 1016.74 1015.31 1014.39 1013.83 1013.13 1012.65 1012.12 1011.87 1010.66 1009.53 1008.26 1006.88 1005.20 1003.89 1002.91 1002.59 1002.43 1002.19 1002.09 1002.17
1022.04 1022.04 1022.04 1022.16 1022.34 1022.34 1022.24 1022.19 1022.03 1021.98 1021.81 1021.56 1021.22 1021.17 1021.20 1020.39 1019.96 1019.79 1019.73 1020.16 1020.16 1019.81 1019.35 1018.77 1016.96 1016.09 1015.31 1014.51 1013.74 1013.08 1012.80 1012.35 1011.08 1009.71 1008.41 1006.83 1005.47 1004.45 1003.54 1003.02 1002.88 1002.74 1002.60
1022.60 1022.52 1022.59 1022.74 1022.91 1022.99 1022.72 1022.83 1022.86 1022.47 1022.07 1021.75 1021.40 1021.13 1020.98 1020.94 1020.97 1020.45 1019.94 1019.62 1019.80 1020.22 1019.96 1019.53 1018.43 1017.65 1017.12 1016.40 1015.49 1014.64 1014.25 1013.77 1012.81 1011.39 1009.81 1008.38 1007.07 1006.02 1005.01 1004.15 1003.69 1003.57 1003.66
1023.39 1023.33 1023.17 1023.36 1023.71 1023.59 1023.36 1023.20 1023.11 1023.25 1022.85 1022.46 1022.15 1021.92 1021.71 1021.42 1021.28 1021.09 1020.65 1020.12 1019.58 1019.34 1019.17 1019.28 1019.24 1018.41 1018.24 1017.90 1017.23 1016.12 1015.73 1015.17 1013.26 1012.08 1010.60 1009.67 1008.61 1007.44 1006.23 1005.62 1005.01 1004.61 1004.20
1024.29 1024.21 1024.16 1024.02 1024.01 1023.94 1023.84 1023.83 1023.72 1023.60 1023.37 1023.15 1022.89 1022.67 1022.49 1022.22 1021.90 1021.59 1021.16 1020.63 1020.11 1019.75 1019.47 1019.17 1018.83 1018.65 1018.47 1018.19 1018.04 1017.59 1016.94 1015.72 1014.18 1013.29 1010.73 1010.06 1009.54 1008.72 1007.92 1007.12 1006.28 1005.81 1005.41
1025.48 1025.36 1025.28 1025.23 1025.16 1024.86 1024.61 1024.42 1024.39 1024.29 1024.09 1023.85 1023.69 1023.44 1023.25 1022.91 1022.55 1022.33 1021.74 1021.34 1020.77 1020.29 1020.00 1019.62 1019.41 1018.92 1018.82 1018.78 1018.69 1018.19 1017.44 1016.46 1015.20 1013.74 1011.76 1010.58 1010.22 1009.50 1008.99 1008.13 1007.83 1007.14 1006.73
Thickness
5668 5664 5661 5659 5655 5648 5641 5636 5632 5630 5630 5632 5633 5635 5632 5631 5630 5629 5628 5625 5625 5623 5620 5618 5618 5617 5616 5615 5613 5611 5609 5605 5604 5607 5603 5598 5592 5590 5591 5591 5592 5593 5595
5655 5648 5644 5642 5639 5633 5634 5634 5622 5623 5620 5620 5623 5624 5624 5623 5621 5619 5617 5615 5613 5611 5611 5610 5609 5608 5606 5604 5600 5594 5592 5590 5589 5593 5589 5586 5584 5585 5583 5580 5580 5582 5585
5639 5630 5627 5622 5622 5626 5623 5631 5622 5615 5613 5611 5613 5614 5615 5613 5609 5606 5604 5603 5602 5602 5601 5600 5600 5598 5596 5592 5587 5583 5581 5583 5585 5584 5581 5574 5574 5575 5576 5574 5573 5574 5575
5627 5623 5620 5618 5616 5626 5621 5610 5605 5603 5602 5600 5602 5603 5602 5601 5598 5596 5595 5593 5592 5592 5590 5589 5588 5586 5584 5581 5577 5577 5577 5575 5570 5568 5568 5567 5566 5570 5566 5566 5569 5568 5570
5617 5615 5613 5609 5613 5607 5602 5597 5595 5593 5591 5591 5593 5593 5593 5591 5591 5581 5577 5578 5580 5582 5582 5581 5582 5578 5571 5566 5563 5565 5563 5562 5561 5563 5564 5565 5566 5566 5566 5567 5565 5563 5561
5603 5602 5600 5596 5598 5593 5590 5589 5588 5585 5582 5584 5585 5585 5583 5581 5570 5561 5558 5562 5566 5569 5572 5572 5570 5570 5569 5562 5558 5552 5549 5547 5550 5553 5557 5563 5569 5564 5560 5558 5556 5551 5547
5595 5590 5586 5586 5584 5582 5580 5579 5576 5576 5577 5576 5575 5570 5567 5562 5555 5550 5546 5550 5554 5558 5561 5562 5563 5563 5558 5558 5555 5554 5547 5543 5539 5541 5546 5549 5552 5555 5551 5546 5544 5541 5541
5581 5577 5575 5573 5572 5571 5571 5568 5567 5567 5566 5564 5562 5557 5556 5552 5544 5538 5533 5540 5544 5549 5550 5550 5551 5552 5551 5543 5543 5543 5544 5544 5542 5540 5537 5540 5541 5541 5538 5536 5535 5535 5535
5570 5568 5565 5564 5563 5561 5558 5555 5555 5554 5554 5551 5550 5548 5544 5541 5531 5525 5521 5526 5532 5536 5539 5541 5542 5541 5539 5533 5535 5540 5546 5547 5544 5539 5535 5533 5530 5528 5527 5524 5528 5526 5530
5560 5558 5556 5555 5552 5550 5546 5546 5544 5543 5545 5540 5540 5539 5532 5529 5522 5514 5510 5514 5518 5525 5531 5537 5538 5534 5531 5529 5531 5537 5541 5544 5542 5541 5537 5534 5530 5528 5524 5519 5519 5522 5523
5549 5547 5546 5544 5544 5539 5536 5534 5532 5529 5526 5527 5529 5526 5522 5517 5514 5510 5508 5509 5514 5518 5527 5534 5533 5528 5527 5529 5530 5532 5531 5534 5538 5535 5533 5530 5523 5519 5519 5516 5514 5514 5516
5539 5537 5534 5533 5532 5529 5526 5523 5520 5516 5516 5514 5513 5511 5511 5512 5508 5505 5505 5507 5512 5524 5527 5526 5529 5525 5527 5531 5533 5529 5529 5532 5534 5535 5530 5526 5517 5510 5509 5507 5507 5506 5507
5527 5526 5525 5523 5521 5519 5516 5513 5508 5501 5497 5497 5495 5495 5501 5503 5503 5503 5506 5508 5514 5521 5520 5522 5523 5522 5525 5531 5529 5528 5529 5528 5528 5535 5535 5525 5513 5501 5497 5497 5498 5500 5501
5515 5516 5515 5514 5511 5505 5502 5497 5494 5490 5486 5483 5483 5485 5489 5493 5494 5497 5508 5511 5517 5520 5521 5523 5519 5519 5520 5525 5529 5529 5525 5521 5522 5525 5532 5523 5509 5495 5484 5485 5491 5495 5500
5504 5503 5505 5498 5497 5493 5488 5482 5480 5473 5471 5472 5472 5475 5480 5484 5483 5487 5495 5504 5506 5513 5515 5519 5518 5518 5517 5519 5517 5515 5517 5518 5520 5522 5524 5525 5510 5496 5480 5481 5488 5496 5504
5493 5490 5487 5482 5482 5487 5483 5477 5468 5466 5463 5462 5464 5467 5473 5473 5478 5486 5493 5498 5503 5508 5515 5515 5507 5502 5501 5503 5505 5507 5511 5513 5514 5520 5531 5533 5517 5511 5500 5496 5504 5511 5515
5477 5474 5473 5475 5476 5478 5474 5469 5463 5461 5458 5458 5461 5465 5467 5469 5477 5484 5490 5495 5501 5512 5513 5508 5498 5494 5494 5494 5496 5498 5502 5507 5513 5519 5528 5535 5531 5520 5519 5510 5513 5517 5516
5467 5460 5460 5461 5465 5466 5462 5457 5453 5450 5450 5455 5458 5459 5463 5468 5472 5478 5486 5497 5506 5507 5508 5504 5494 5489 5489 5490 5492 5496 5502 5508 5512 5518 5525 5533 5534 5532 5528 5525 5523 5526 5531
5462 5456 5451 5450 5451 5454 5450 5447 5443 5438 5439 5442 5449 5455 5458 5462 5465 5470 5479 5487 5493 5497 5496 5500 5500 5492 5488 5489 5489 5493 5497 5501 5505 5516 5522 5532 5531 5531 5530 5528 5525 5525 5529
5447 5438 5443 5449 5447 5442 5444 5440 5436 5436 5435 5437 5445 5445 5450 5460 5460 5462 5468 5471 5473 5480 5484 5488 5493 5496 5492 5492 5493 5493 5498 5503 5509 5512 5520 5531 5534 5532 5530 5531 5531 5531 5530
5442 5436 5432 5438 5436 5438 5438 5435 5434 5435 5437 5439 5444 5437 5441 5453 5454 5448 5450 5454 5457 5463 5470 5473 5483 5488 5491 5493 5493 5494 5492 5497 5501 5505 5514 5526 5535 5542 5541 5538 5538 5538 5538
5432 5430 5429 5427 5425 5425 5427 5427 5429 5430 5432 5434 5436 5437 5436 5444 5448 5449 5449 5446 5445 5449 5453 5457 5470 5474 5478 5483 5488 5490 5489 5489 5495 5502 5508 5518 5529 5536 5545 5548 5547 5547 5548
5425 5424 5422 5419 5417 5416 5418 5417 5416 5421 5425 5428 5431 5433 5435 5435 5435 5440 5444 5447 5445 5443 5446 5450 5457 5461 5464 5468 5473 5478 5480 5482 5487 5495 5504 5513 5520 5529 5537 5545 5548 5548 5547
5417 5415 5415 5412 5408 5408 5410 5410 5410 5409 5412 5416 5420 5423 5425 5428 5429 5430 5434 5437 5441 5443 5446 5446 5448 5453 5455 5457 5461 5467 5470 5473 5485 5493 5502 5507 5514 5522 5533 5537 5542 5545 5549
5407 5406 5405 5405 5404 5404 5404 5403 5403 5404 5406 5408 5411 5413 5415 5417 5420 5422 5425 5429 5433 5436 5438 5441 5445 5448 5450 5453 5454 5457 5462 5471 5480 5487 5503 5507 5510 5516 5521 5527 5535 5539 5543
5395 5394 5394 5393 5393 5395 5396 5397 5396 5397 5398 5400 5402 5404 5405 5408 5410 5412 5417 5419 5423 5427 5429 5433 5435 5440 5442 5444 5447 5451 5457 5465 5474 5484 5496 5504 5506 5512 5515 5521 5522 5530 5534